EW3521 Weather Reports


Display with metric or nautical units.
time (UTC)temp
F
wind
direction
speed
MPH
gust
MPH
rain 1hr
in
rain 24hr
in
rain mn
in
humidity
%
barometer
mb
20260507210016 46 157 0.0 4.0 0.00 0.00 0.00 49 1018.5
20260507204519 46 78 0.0 3.0 0.00 0.00 0.00 51 1018.5
20260507203013 47 101 1.0 5.0 0.00 0.00 0.00 48 1018.5
20260507201515 47 123 1.0 4.0 0.00 0.00 0.00 48 1018.4
20260507200012 46 38 1.0 5.0 0.00 0.00 0.00 49 1018.4
20260507194509 46 112 0.0 4.0 0.00 0.00 0.00 51 1018.5
20260507193008 46 70 1.0 4.0 0.00 0.00 0.00 51 1018.6
20260507191504 46 157 0.0 4.0 0.00 0.00 0.00 53 1018.9
20260507190004 46 82 1.0 4.0 0.00 0.00 0.00 51 1018.9
20260507184501 47 115 0.0 5.0 0.00 0.00 0.00 54 1018.9
20260507183100 46 151 0.0 3.0 0.00 0.00 0.00 54 1019.0
20260507181606 46 87 0.0 4.0 0.00 0.00 0.00 52 1019.2
20260507180056 47 172 1.0 4.0 0.00 0.00 0.00 51 1019.2
20260507174601 46 98 1.0 3.0 0.00 0.00 0.00 53 1019.4
20260507173124 47 358 1.0 3.0 0.00 0.00 0.00 56 1019.5
20260507171557 46 128 1.0 3.0 0.00 0.00 0.00 58 1019.6
20260507170058 45 123 0.0 3.0 0.00 0.00 0.00 58 1019.9
20260507164552 45 79 1.0 4.0 0.00 0.00 0.00 61 1020.1
20260507163042 45 39 0.0 4.0 0.00 0.00 0.00 61 1020.1
20260507161556 45 32 1.0 3.0 0.00 0.00 0.00 60 1020.3
20260507160041 44 138 0.0 5.0 0.00 0.00 0.00 60 1020.4
20260507154540 44 64 0.0 2.0 0.00 0.00 0.00 61 1020.4
20260507153034 44 43 0.0 2.0 0.00 0.00 0.00 67 1020.5
20260507151531 43 111 0.0 2.0 0.00 0.00 0.00 72 1020.4
20260507150027 42 113 0.0 2.0 0.00 0.00 0.00 74 1020.5
20260507144525 42 108 0.0 2.0 0.00 0.00 0.00 76 1020.5
20260507143023 41 112 0.0 2.0 0.00 0.00 0.00 74 1020.5
20260507141519 40 89 0.0 2.0 0.00 0.00 0.00 77 1020.6
20260507140015 40 96 0.0 1.0 0.00 0.00 0.00 77 1020.6
20260507134517 39 172 0.0 1.0 0.00 0.00 0.00 79 1020.5
20260507133013 38 110 0.0 2.0 0.00 0.00 0.00 82 1020.6
20260507131508 37 122 0.0 1.0 0.00 0.00 0.00 82 1020.4
20260507130005 37 122 0.0 1.0 0.00 0.00 0.00 83 1020.5
20260507124508 36 143 0.0 1.0 0.00 0.00 0.00 84 1020.4
20260507123100 35 149 0.0 0.0 0.00 0.00 0.00 85 1020.3
20260507121601 35 153 0.0 0.0 0.00 0.00 0.00 87 1020.4
20260507114548 32 154 0.0 0.0 0.00 0.00 0.00 92 1020.1
20260507113050 31 154 0.0 0.0 0.00 0.00 0.00 93 1020.0
20260507111547 29 154 0.0 0.0 0.00 0.00 0.00 93 1020.0
20260507110045 28 154 0.0 0.0 0.00 0.00 0.00 94 1019.9
20260507104542 27 154 0.0 0.0 0.00 0.00 0.00 93 1019.8
20260507103041 27 154 0.0 0.0 0.00 0.00 0.00 93 1019.8
20260507101540 27 154 0.0 0.0 0.00 0.00 0.00 92 1019.8
20260507100040 28 154 0.0 0.0 0.00 0.00 0.00 92 1019.9
20260507094537 28 154 0.0 0.0 0.00 0.00 0.00 91 1019.9
20260507093036 28 154 0.0 0.0 0.00 0.00 0.00 91 1020.0
20260507091535 29 153 0.0 0.0 0.00 0.00 0.00 90 1020.1
20260507090136 29 154 0.0 0.0 0.00 0.00 0.00 90 1020.1
20260507084534 29 153 0.0 0.0 0.00 0.00 0.00 90 1020.1
20260507083032 29 154 0.0 0.0 0.00 0.00 0.00 91 1020.2
20260507081541 28 153 0.0 0.0 0.00 0.00 0.00 91 1020.2
20260507080036 28 154 0.0 0.0 0.00 0.00 0.00 91 1020.2
20260507074533 27 154 0.0 0.0 0.00 0.00 0.00 91 1020.3
20260507073027 27 154 0.0 0.0 0.00 0.00 0.00 90 1020.4
20260507071532 27 153 0.0 0.0 0.00 0.00 0.00 90 1020.5
20260507070023 27 154 0.0 0.0 0.00 0.00 0.00 89 1020.6
20260507064523 27 154 0.0 0.0 0.00 0.00 0.00 89 1020.8
20260507063019 27 154 0.0 0.0 0.00 0.00 0.00 89 1020.9
20260507061523 28 154 0.0 0.0 0.00 0.00 0.00 87 1020.9
20260507060015 28 158 0.0 0.0 0.00 0.00 0.00 87 1020.9
20260507054515 28 158 0.0 0.0 0.00 0.00 0.00 87 1021.0
20260507053011 29 158 0.0 0.0 0.00 0.00 0.00 86 1021.0
20260507051509 29 158 0.0 0.0 0.00 0.00 0.00 85 1021.0
20260507050007 29 158 0.0 0.0 0.00 0.00 0.00 86 1021.1
20260507044507 30 158 0.0 0.0 0.00 0.00 0.00 83 1021.2
20260507043101 30 158 0.0 0.0 0.00 0.00 0.00 82 1021.3
20260507041603 31 158 0.0 0.0 0.00 0.00 0.00 82 1021.3
20260507040105 32 158 0.0 0.0 0.00 0.00 0.00 79 1021.4
20260507034615 33 158 0.0 0.0 0.00 0.00 0.00 77 1021.3
20260507033105 33 158 0.0 0.0 0.00 0.00 0.00 76 1021.4
20260507031554 34 158 0.0 0.0 0.00 0.00 0.00 73 1021.4
20260507030053 35 158 0.0 0.0 0.00 0.00 0.00 73 1021.4
20260507024557 35 158 0.0 0.0 0.00 0.00 0.00 70 1021.2
20260507023049 36 158 0.0 0.0 0.00 0.00 0.00 69 1021.2
20260507021557 37 158 0.0 0.0 0.00 0.00 0.00 67 1021.2
20260507020047 37 158 0.0 0.0 0.00 0.00 0.00 66 1021.1
20260507014547 38 158 0.0 0.0 0.00 0.00 0.00 63 1021.1
20260507013045 38 158 0.0 0.0 0.00 0.00 0.00 64 1021.1
20260507011545 38 158 0.0 0.0 0.00 0.00 0.00 61 1020.8
20260507010048 39 122 0.0 1.0 0.00 0.00 0.00 61 1020.8
20260507004543 39 104 0.0 1.0 0.00 0.00 0.00 58 1020.7
20260507003042 39 104 0.0 1.0 0.00 0.00 0.00 58 1020.7
20260507001604 40 80 0.0 1.0 0.00 0.00 0.00 57 1020.7
20260507000042 40 128 0.0 1.0 0.00 0.00 0.00 56 1020.7
20260506234552 40 102 0.0 1.0 0.00 0.00 0.00 55 1020.7
20260506233041 40 46 0.0 2.0 0.00 0.00 0.00 55 1020.6
20260506231540 41 136 0.0 1.0 0.00 0.00 0.00 56 1020.7
20260506230039 41 103 0.0 2.0 0.00 0.00 0.00 55 1020.7
20260506224549 41 132 0.0 2.0 0.00 0.00 0.00 55 1020.7
20260506223038 41 117 0.0 2.0 0.00 0.00 0.00 56 1020.6
20260506221537 42 99 0.0 2.0 0.00 0.00 0.00 56 1020.8
20260506220045 42 90 0.0 2.0 0.00 0.00 0.00 55 1020.7
20260506214537 42 105 0.0 2.0 0.00 0.00 0.00 56 1020.6
20260506213036 41 83 1.0 3.0 0.00 0.00 0.00 54 1020.7
20260506211538 42 44 1.0 4.0 0.00 0.00 0.00 56 1020.6